When you browse on this site, cookies collect data to enhance your experience and personalize the content and advertising you see.
Visit our Privacy Policy to learn more. By continuing to use the site, you agree to this use of cookies and data.
  • En España
  • Lista de países
  • Para 7 días
  • Temperatura del agua
  • El tiempo en el mapa
  • Informadores
  • user-avatar
    Iniciar sesión

    Tiempo cada hora Timiryazevo

    Hoy, 28 Enero, Martes

    Tiempo Temperatura Precipitaciones Viento Presión Humedad
    00:00 -7°C° 0.2 mm 5 mps 743 mmHg 90%
    01:00 -7°C° 0.4 mm 5 mps 743 mmHg 91%
    02:00 -7°C° 0.4 mm 5 mps 743 mmHg 92%
    03:00 -8°C° 0 mm 5 mps 742 mmHg 94%
    04:00 -8°C° 0.5 mm 5 mps 742 mmHg 94%
    05:00 -8°C° 0.5 mm 5 mps 742 mmHg 94%
    06:00 -9°C° 0.5 mm 6 mps 741 mmHg 94%
    07:00 -9°C° 0.5 mm 6 mps 741 mmHg 94%
    08:00 -9°C° 0.5 mm 6 mps 741 mmHg 94%
    09:00 -9°C° 0.5 mm 6 mps 741 mmHg 94%
    10:00 -8°C° 0.4 mm 6 mps 741 mmHg 94%
    11:00 -7°C° 0.4 mm 5 mps 741 mmHg 94%
    12:00 -6°C° 0.4 mm 5 mps 741 mmHg 95%
    13:00 -6°C° 0.3 mm 5 mps 740 mmHg 95%
    14:00 -4°C° 0.3 mm 4 mps 740 mmHg 95%
    15:00 -3°C° 0.3 mm 4 mps 739 mmHg 96%
    16:00 -2°C° 0.2 mm 3 mps 739 mmHg 96%
    17:00 -4°C° 0.2 mm 3 mps 739 mmHg 97%
    18:00 -4°C° 0.2 mm 3 mps 739 mmHg 97%
    19:00 -4°C° 0.1 mm 3 mps 739 mmHg 97%
    20:00 -3°C° 0.1 mm 2 mps 739 mmHg 97%
    21:00 -3°C° 0.1 mm 2 mps 739 mmHg 97%
    22:00 -3°C° 0.1 mm 2 mps 739 mmHg 97%
    23:00 -4°C° 0.1 mm 3 mps 739 mmHg 97%

    Mañana, 29 Enero, Miércoles

    Tiempo Temperatura Precipitaciones Viento Presión Humedad
    00:00 -2°C° 0.1 mm 3 mps 739 mmHg 96%
    01:00 -2°C° 0 mm 3 mps 739 mmHg 96%
    02:00 -2°C° 0 mm 3 mps 739 mmHg 95%
    03:00 -2°C° 0 mm 3 mps 739 mmHg 95%
    04:00 -2°C° 0 mm 3 mps 738 mmHg 95%
    05:00 -2°C° 0 mm 2 mps 738 mmHg 95%
    06:00 -2°C° 0 mm 2 mps 738 mmHg 96%
    07:00 -2°C° 0 mm 2 mps 738 mmHg 96%
    08:00 -1°C° 0 mm 3 mps 738 mmHg 97%
    09:00 -1°C° 0 mm 3 mps 738 mmHg 98%
    10:00 -1°C° 0 mm 3 mps 738 mmHg 98%
    11:00 -1°C° 0 mm 3 mps 738 mmHg 99%
    12:00 -1°C° 0 mm 3 mps 738 mmHg 99%
    13:00 -1°C° 0 mm 3 mps 738 mmHg 98%
    14:00 -1°C° 0 mm 3 mps 737 mmHg 98%
    15:00 -2°C° 0 mm 4 mps 737 mmHg 97%
    16:00 -2°C° 0 mm 4 mps 737 mmHg 97%
    17:00 -1°C° 0 mm 3 mps 737 mmHg 97%
    18:00 -1°C° 0 mm 3 mps 736 mmHg 97%
    19:00 -1°C° 0.1 mm 3 mps 736 mmHg 97%
    20:00 -1°C° 0.1 mm 4 mps 736 mmHg 98%
    21:00 -1°C° 0.1 mm 4 mps 735 mmHg 98%
    22:00 -1°C° 0.1 mm 4 mps 735 mmHg 98%
    23:00 -1°C° 0.1 mm 4 mps 735 mmHg 98%

    Pasado mañana, 30 Enero, Jueves

    Tiempo Temperatura Precipitaciones Viento Presión Humedad
    00:00 -1°C° 0.1 mm 4 mps 734 mmHg 98%
    01:00 -1°C° 0.2 mm 5 mps 734 mmHg 98%
    02:00 -1°C° 0.2 mm 5 mps 733 mmHg 98%
    03:00 -1°C° 0.2 mm 5 mps 733 mmHg 98%
    04:00 -1°C° 0.1 mm 5 mps 732 mmHg 98%
    05:00 -2°C° 0.1 mm 6 mps 731 mmHg 97%
    06:00 -2°C° 0.1 mm 6 mps 731 mmHg 97%
    07:00 -2°C° 0.6 mm 6 mps 731 mmHg 97%
    08:00 -2°C° 0.6 mm 6 mps 730 mmHg 97%
    09:00 -2°C° 0.6 mm 6 mps 730 mmHg 97%
    10:00 -2°C° 0.9 mm 6 mps 730 mmHg 96%
    11:00 -2°C° 0.9 mm 5 mps 730 mmHg 95%
    12:00 -2°C° 0.9 mm 5 mps 730 mmHg 94%
    13:00 -2°C° 0 mm 5 mps 730 mmHg 91%
    14:00 -2°C° 0 mm 5 mps 731 mmHg 88%
    15:00 -2°C° 0 mm 5 mps 731 mmHg 85%
    16:00 -2°C° 0 mm 5 mps 731 mmHg 86%
    17:00 -4°C° 0 mm 5 mps 731 mmHg 87%
    18:00 -4°C° 0 mm 5 mps 731 mmHg 88%
    19:00 -4°C° 0.1 mm 5 mps 731 mmHg 91%
    20:00 -4°C° 0.1 mm 5 mps 731 mmHg 93%
    21:00 -4°C° 0.1 mm 5 mps 731 mmHg 95%
    22:00 -4°C° 0.1 mm 5 mps 730 mmHg 94%
    23:00 -2°C° 0.1 mm 5 mps 730 mmHg 93%

    31 Enero, Viernes

    Tiempo Temperatura Precipitaciones Viento Presión Humedad
    00:00 -2°C° 0.1 mm 5 mps 730 mmHg 92%
    01:00 -3°C° 0 mm 6 mps 730 mmHg 91%
    02:00 -4°C° 0 mm 6 mps 730 mmHg 90%
    03:00 -4°C° 0 mm 6 mps 730 mmHg 89%
    04:00 -4°C° 0.2 mm 6 mps 729 mmHg 91%
    05:00 -4°C° 0.2 mm 6 mps 729 mmHg 94%
    06:00 -4°C° 0.2 mm 6 mps 729 mmHg 96%
    07:00 -4°C° 0.2 mm 5 mps 729 mmHg 96%
    08:00 -4°C° 0.2 mm 5 mps 729 mmHg 95%
    09:00 -4°C° 0.2 mm 4 mps 728 mmHg 95%
    10:00 -3°C° 0.1 mm 4 mps 728 mmHg 95%
    11:00 -2°C° 0.1 mm 3 mps 728 mmHg 96%
    12:00 -1°C° 0.1 mm 2 mps 728 mmHg 96%
    13:00 -1°C° 0 mm 2 mps 728 mmHg 96%
    14:00 +1°C° 0 mm 1 mps 728 mmHg 96%
    15:00 +1°C° 0 mm 1 mps 729 mmHg 96%
    16:00 +1°C° 0 mm 1 mps 729 mmHg 96%
    17:00 0°C° 0 mm 1 mps 729 mmHg 95%
    18:00 0°C° 0 mm 1 mps 729 mmHg 95%
    19:00 -2°C° 0 mm 2 mps 730 mmHg 95%
    20:00 -2°C° 0 mm 2 mps 730 mmHg 95%
    21:00 -3°C° 0 mm 2 mps 730 mmHg 95%
    22:00 -3°C° 0 mm 2 mps 731 mmHg 94%
    23:00 -4°C° 0 mm 2 mps 731 mmHg 93%

    1 Febrero, Sábado

    Tiempo Temperatura Precipitaciones Viento Presión Humedad
    00:00 -4°C° 0 mm 2 mps 731 mmHg 92%
    01:00 -4°C° 0 mm 2 mps 731 mmHg 93%
    02:00 -4°C° 0 mm 2 mps 732 mmHg 95%
    03:00 -4°C° 0 mm 2 mps 732 mmHg 96%
    04:00 -4°C° 0.1 mm 2 mps 732 mmHg 96%
    05:00 -4°C° 0.1 mm 2 mps 732 mmHg 96%
    06:00 -4°C° 0.1 mm 2 mps 732 mmHg 96%
    07:00 -4°C° 0.1 mm 3 mps 733 mmHg 96%
    08:00 -2°C° 0.1 mm 3 mps 733 mmHg 96%
    09:00 -3°C° 0.1 mm 4 mps 733 mmHg 96%
    10:00 -2°C° 0.1 mm 4 mps 733 mmHg 96%
    11:00 -2°C° 0.1 mm 4 mps 734 mmHg 95%
    12:00 -2°C° 0.1 mm 5 mps 734 mmHg 95%
    13:00 -2°C° 0 mm 5 mps 734 mmHg 94%
    14:00 -2°C° 0 mm 4 mps 734 mmHg 93%
    15:00 -2°C° 0 mm 4 mps 734 mmHg 91%
    16:00 -2°C° 0 mm 4 mps 734 mmHg 92%
    17:00 -2°C° 0 mm 4 mps 734 mmHg 93%
    18:00 -2°C° 0 mm 4 mps 734 mmHg 94%
    19:00 -2°C° 0.1 mm 4 mps 734 mmHg 95%
    20:00 -2°C° 0.1 mm 4 mps 734 mmHg 95%
    21:00 -2°C° 0.1 mm 4 mps 734 mmHg 96%
    22:00 -2°C° 0.1 mm 4 mps 734 mmHg 96%
    23:00 -2°C° 0.1 mm 4 mps 734 mmHg 96%

    2 Febrero, Domingo

    Tiempo Temperatura Precipitaciones Viento Presión Humedad
    00:00 -2°C° 0.1 mm 5 mps 734 mmHg 96%
    01:00 -2°C° 0 mm 5 mps 734 mmHg 96%
    02:00 -2°C° 0 mm 5 mps 734 mmHg 97%
    03:00 -2°C° 0 mm 5 mps 734 mmHg 97%
    04:00 -2°C° 0 mm 5 mps 734 mmHg 96%
    05:00 -1°C° 0 mm 4 mps 733 mmHg 96%
    06:00 -1°C° 0 mm 4 mps 733 mmHg 95%
    07:00 -1°C° 0 mm 5 mps 733 mmHg 96%
    08:00 -1°C° 0 mm 5 mps 733 mmHg 96%
    09:00 -2°C° 0 mm 5 mps 733 mmHg 96%
    10:00 -1°C° 0 mm 5 mps 733 mmHg 97%
    11:00 -1°C° 0 mm 5 mps 733 mmHg 98%
    12:00 -1°C° 0 mm 5 mps 733 mmHg 98%
    13:00 -1°C° 0.1 mm 5 mps 732 mmHg 98%
    14:00 -1°C° 0.1 mm 5 mps 732 mmHg 98%
    15:00 0°C° 0.1 mm 5 mps 732 mmHg 98%
    16:00 -1°C° 0.4 mm 5 mps 731 mmHg 98%
    17:00 -1°C° 0.4 mm 5 mps 731 mmHg 98%
    18:00 -1°C° 0.4 mm 5 mps 730 mmHg 97%
    19:00 -1°C° 0.3 mm 5 mps 730 mmHg 97%
    20:00 -1°C° 0.3 mm 4 mps 730 mmHg 98%
    21:00 -1°C° 0.3 mm 4 mps 729 mmHg 98%
    22:00 -1°C° 0.4 mm 4 mps 729 mmHg 98%
    23:00 0°C° 0.4 mm 3 mps 729 mmHg 98%
    Mostrar más